Time,TemperatureF,DewpointF,PressureIn,WindDirection,WindDirectionDegrees,WindSpeedMPH,WindSpeedGustMPH,Humidity,HourlyPrecipIn,Conditions,Clouds,dailyrainin,SoftwareType,DateUTC
2014-08-27 00:00:00,65.3,64.7,30.08,NE,45,0.0,-999.0,98,-99.99,,,0.00,Acu-Link.com,2014-08-27 05:00:00,
2014-08-27 00:15:00,64.9,64.3,30.09,NNE,22,0.0,-999.0,98,-99.99,,,0.00,Acu-Link.com,2014-08-27 05:15:00,
2014-08-27 00:31:00,64.9,64.3,30.08,North,0,0.0,-999.0,98,-99.99,,,0.00,Acu-Link.com,2014-08-27 05:31:00,
2014-08-27 00:46:00,65.3,64.7,30.07,SE,135,0.0,-999.0,98,-99.99,,,0.00,Acu-Link.com,2014-08-27 05:46:00,
2014-08-27 01:01:00,66.0,65.4,30.08,NNW,337,0.0,-999.0,98,-99.99,,,0.00,Acu-Link.com,2014-08-27 06:01:00,
2014-08-27 01:17:00,66.4,65.8,30.08,NNE,22,0.0,-999.0,98,-99.99,,,0.00,Acu-Link.com,2014-08-27 06:17:00,
2014-08-27 01:32:00,66.7,66.1,30.08,NNE,22,0.0,-999.0,98,-99.99,,,0.00,Acu-Link.com,2014-08-27 06:32:00,
2014-08-27 01:47:00,66.7,66.1,30.09,West,270,0.0,-999.0,98,-99.99,,,0.00,Acu-Link.com,2014-08-27 06:47:00,
2014-08-27 02:02:00,67.3,66.7,30.09,East,90,0.0,-999.0,98,-99.99,,,0.00,Acu-Link.com,2014-08-27 07:02:00,
2014-08-27 02:17:00,67.8,67.2,30.09,NE,45,0.0,-999.0,98,-99.99,,,0.00,Acu-Link.com,2014-08-27 07:17:00,
2014-08-27 02:33:00,67.5,66.9,30.09,NNE,22,0.0,-999.0,98,-99.99,,,0.00,Acu-Link.com,2014-08-27 07:33:00,
2014-08-27 02:48:00,67.3,66.7,30.09,NE,45,0.0,-999.0,98,-99.99,,,0.00,Acu-Link.com,2014-08-27 07:48:00,
2014-08-27 03:03:00,67.6,67.0,30.08,ESE,112,0.0,-999.0,98,-99.99,,,0.00,Acu-Link.com,2014-08-27 08:03:00,
2014-08-27 03:19:00,68.0,67.4,30.08,ENE,67,0.0,-999.0,98,-99.99,,,0.00,Acu-Link.com,2014-08-27 08:19:00,
2014-08-27 03:34:00,68.2,67.6,30.07,West,270,0.0,-999.0,98,-99.99,,,0.00,Acu-Link.com,2014-08-27 08:34:00,
2014-08-27 03:49:00,67.8,67.2,30.07,ESE,112,0.0,-999.0,98,-99.99,,,0.00,Acu-Link.com,2014-08-27 08:49:00,
2014-08-27 04:05:00,66.6,66.0,30.07,ESE,112,1.7,-999.0,98,-99.99,,,0.00,Acu-Link.com,2014-08-27 09:05:00,
2014-08-27 04:20:00,62.8,62.2,30.08,SE,135,2.2,-999.0,98,-99.99,,,0.00,Acu-Link.com,2014-08-27 09:20:00,
2014-08-27 04:35:00,62.4,61.8,30.08,ESE,112,2.7,-999.0,98,-99.99,,,0.00,Acu-Link.com,2014-08-27 09:35:00,
2014-08-27 04:50:00,61.9,61.3,30.08,SW,225,1.1,-999.0,98,-99.99,,,0.00,Acu-Link.com,2014-08-27 09:50:00,
2014-08-27 05:06:00,62.1,61.5,30.09,ENE,67,2.2,-999.0,98,-99.99,,,0.00,Acu-Link.com,2014-08-27 10:06:00,
2014-08-27 05:21:00,61.3,60.7,30.08,East,90,3.7,-999.0,98,-99.99,,,0.00,Acu-Link.com,2014-08-27 10:21:00,
2014-08-27 05:36:00,61.0,60.4,30.08,ESE,112,0.0,-999.0,98,-99.99,,,0.00,Acu-Link.com,2014-08-27 10:36:00,
2014-08-27 05:51:00,60.8,60.2,30.08,East,90,0.0,-999.0,98,-99.99,,,0.00,Acu-Link.com,2014-08-27 10:51:00,
2014-08-27 06:07:00,60.8,60.2,30.09,East,90,0.0,-999.0,98,-99.99,,,0.00,Acu-Link.com,2014-08-27 11:07:00,
2014-08-27 06:22:00,60.6,60.0,30.09,ENE,67,0.0,-999.0,98,-99.99,,,0.00,Acu-Link.com,2014-08-27 11:22:00,
2014-08-27 06:37:00,61.0,60.4,30.09,NE,45,0.0,-999.0,98,-99.99,,,0.00,Acu-Link.com,2014-08-27 11:37:00,
2014-08-27 06:52:00,61.0,60.4,30.09,SE,135,0.0,-999.0,98,-99.99,,,0.00,Acu-Link.com,2014-08-27 11:52:00,
2014-08-27 07:08:00,61.5,60.9,30.09,South,180,0.0,-999.0,98,-99.99,,,0.00,Acu-Link.com,2014-08-27 12:08:00,
2014-08-27 07:23:00,62.6,62.0,30.09,NE,45,0.0,-999.0,98,-99.99,,,0.00,Acu-Link.com,2014-08-27 12:23:00,
2014-08-27 07:38:00,63.5,62.9,30.10,SE,135,2.2,-999.0,98,-99.99,,,0.00,Acu-Link.com,2014-08-27 12:38:00,
2014-08-27 07:54:00,64.0,63.4,30.10,ESE,112,2.2,-999.0,98,-99.99,,,0.00,Acu-Link.com,2014-08-27 12:54:00,
2014-08-27 08:09:00,63.1,62.5,30.10,NE,45,2.7,-999.0,98,-99.99,,,0.00,Acu-Link.com,2014-08-27 13:09:00,
2014-08-27 08:24:00,63.7,63.1,30.11,ESE,112,2.7,-999.0,98,-99.99,,,0.00,Acu-Link.com,2014-08-27 13:24:00,
2014-08-27 08:39:00,64.0,63.4,30.10,East,90,5.3,-999.0,98,-99.99,,,0.00,Acu-Link.com,2014-08-27 13:39:00,
2014-08-27 08:55:00,65.3,64.7,30.10,East,90,6.3,-999.0,98,-99.99,,,0.00,Acu-Link.com,2014-08-27 13:55:00,
2014-08-27 09:10:00,65.8,65.2,30.11,SSE,157,2.7,-999.0,98,-99.99,,,0.00,Acu-Link.com,2014-08-27 14:10:00,
2014-08-27 09:25:00,67.3,66.7,30.10,ENE,67,1.7,-999.0,98,-99.99,,,0.00,Acu-Link.com,2014-08-27 14:25:00,
2014-08-27 09:40:00,68.4,67.8,30.11,SSE,157,3.7,-999.0,98,-99.99,,,0.00,Acu-Link.com,2014-08-27 14:40:00,
2014-08-27 09:56:00,69.6,69.0,30.12,SE,135,3.7,-999.0,98,-99.99,,,0.00,Acu-Link.com,2014-08-27 14:56:00,
2014-08-27 10:11:00,69.4,68.8,30.12,ESE,112,4.7,-999.0,98,-99.99,,,0.00,Acu-Link.com,2014-08-27 15:11:00,
2014-08-27 10:26:00,69.4,68.8,30.12,ESE,112,3.7,-999.0,98,-99.99,,,0.00,Acu-Link.com,2014-08-27 15:26:00,
2014-08-27 10:41:00,70.9,70.3,30.13,SE,135,1.1,-999.0,98,-99.99,,,0.00,Acu-Link.com,2014-08-27 15:41:00,
2014-08-27 10:57:00,71.2,70.6,30.14,SSE,157,3.2,-999.0,98,-99.99,,,0.00,Acu-Link.com,2014-08-27 15:57:00,
2014-08-27 11:12:00,71.4,70.8,30.13,West,270,1.7,-999.0,98,-99.99,,,0.00,Acu-Link.com,2014-08-27 16:12:00,
2014-08-27 11:27:00,72.9,72.3,30.13,WSW,247,2.2,-999.0,98,-99.99,,,0.00,Acu-Link.com,2014-08-27 16:27:00,
2014-08-27 11:42:00,74.3,73.7,30.13,South,180,2.2,-999.0,98,-99.99,,,0.00,Acu-Link.com,2014-08-27 16:42:00,
2014-08-27 11:57:00,76.3,75.7,30.13,South,180,2.7,-999.0,98,-99.99,,,0.00,Acu-Link.com,2014-08-27 16:57:00,
2014-08-27 12:13:00,75.0,74.4,30.12,SE,135,1.1,-999.0,98,-99.99,,,0.00,Acu-Link.com,2014-08-27 17:13:00,
2014-08-27 12:28:00,75.2,74.6,30.11,South,180,1.1,-999.0,98,-99.99,,,0.00,Acu-Link.com,2014-08-27 17:28:00,
2014-08-27 12:43:00,73.6,73.0,30.10,ESE,112,1.1,-999.0,98,-99.99,,,0.00,Acu-Link.com,2014-08-27 17:43:00,
2014-08-27 12:59:00,75.4,74.8,30.10,ENE,67,2.2,-999.0,98,-99.99,,,0.00,Acu-Link.com,2014-08-27 17:59:00,
2014-08-27 13:14:00,76.3,75.7,30.09,WSW,247,2.7,-999.0,98,-99.99,,,0.00,Acu-Link.com,2014-08-27 18:14:00,
2014-08-27 13:29:00,77.9,77.3,30.08,SSW,202,0.0,-999.0,98,-99.99,,,0.00,Acu-Link.com,2014-08-27 18:29:00,
2014-08-27 13:45:00,79.2,78.6,30.08,SW,225,0.0,-999.0,98,-99.99,,,0.00,Acu-Link.com,2014-08-27 18:45:00,
2014-08-27 14:00:00,77.2,76.6,30.08,SW,225,2.2,-999.0,98,-99.99,,,0.00,Acu-Link.com,2014-08-27 19:00:00,
2014-08-27 14:15:00,78.4,77.8,30.07,SE,135,1.1,-999.0,98,-99.99,,,0.00,Acu-Link.com,2014-08-27 19:15:00,
2014-08-27 14:31:00,78.1,77.5,30.07,SE,135,2.7,-999.0,98,-99.99,,,0.00,Acu-Link.com,2014-08-27 19:31:00,
2014-08-27 14:46:00,80.1,79.5,30.06,SE,135,0.0,-999.0,98,-99.99,,,0.00,Acu-Link.com,2014-08-27 19:46:00,
2014-08-27 15:01:00,78.4,77.8,30.06,ESE,112,2.7,-999.0,98,-99.99,,,0.00,Acu-Link.com,2014-08-27 20:01:00,
2014-08-27 15:16:00,77.9,77.3,30.06,NNE,22,0.0,-999.0,98,-99.99,,,0.00,Acu-Link.com,2014-08-27 20:16:00,
2014-08-27 15:32:00,75.2,74.6,30.06,West,270,0.0,-999.0,98,-99.99,,,0.00,Acu-Link.com,2014-08-27 20:32:00,
2014-08-27 15:47:00,76.8,76.2,30.05,East,90,2.7,-999.0,98,-99.99,,,0.00,Acu-Link.com,2014-08-27 20:47:00,
2014-08-27 16:02:00,78.8,78.2,30.05,WSW,247,2.2,-999.0,98,-99.99,,,0.00,Acu-Link.com,2014-08-27 21:02:00,
2014-08-27 16:18:00,80.2,79.6,30.04,ESE,112,1.1,-999.0,98,-99.99,,,0.00,Acu-Link.com,2014-08-27 21:18:00,
2014-08-27 16:33:00,81.0,80.4,30.03,SW,225,0.0,-999.0,98,-99.99,,,0.00,Acu-Link.com,2014-08-27 21:33:00,